Regional Weather Roundup
Issued by NWS

Home | Current Version | Previous Version | Text Only | Print | Product List | Glossary On
Versions: 1 2 3 4 5 6 7 8 9 10 11 12 13 14 15 16 17 18 19 20 21 22 23 24 25 26 27 28 29 30 31 32 33 34 35 36 37 38 39 40 41 42 43 44 45 46 47 48 49
000
ASUS45 KSLC 130510
RWRUT

UTAH REGIONAL WEATHER ROUNDUP
NATIONAL WEATHER SERVICE SALT LAKE CITY UT
1000 PM MST FRI FEB 12 2016

UTZ001>011-023>025-130600-

NORTHERN UTAH

CITY           SKY/WX    TMP DP  RH WIND       PRES   REMARKS
BRIGHAM CITY   CLOUDY    26  24  93 CALM      30.35F
HILL AFB       FOG       27  27  98 NW6       30.32S VSB 1/2 WCI  21
LOGAN          CLOUDY    23  22  96 CALM      30.33F FOG
OGDEN          FOG       26  26 100 NW6       30.32S VSB 1/2 WCI  19
PROVO AIRPORT    N/A     16  12  86 S3        30.32S VSB<1/4
SALT LAKE CITY CLOUDY    30  28  92 W3        30.33S FOG
VERNAL         CLOUDY    23  19  85 W3        30.33F FOG
WENDOVER       CLOUDY    30  25  80 CALM      30.34S
HEBER CITY     PTCLDY    21  16  79 CALM      30.27S
WEST JORDAN    CLOUDY    28  28 100 CALM      30.33R

$$

UTZ012>022-026-027-130600-

SOUTHERN/CENTRAL UTAH

CITY           SKY/WX    TMP DP  RH WIND       PRES   REMARKS
BLANDING       PTCLDY    40  26  58 NE5       30.40F
BRYCE CANYON   MOCLDY    21  16  81 W7        30.38S WCI  12
CEDAR CITY     MOCLDY    28  23  81 CALM      30.28S
DELTA          CLOUDY    19  17  95 N3        30.33S VSB<1/4
HANKSVILLE     MOCLDY    32  32 100 CALM      30.35S
MILFORD        CLOUDY    13  10  88 CALM      30.30S FOG
MOAB/CYNLANDS  PTCLDY    33  29  85 CALM      30.31S
PRICE          MOCLDY    31  23  72 NE5       30.32S WCI  26
ST GEORGE      PTCLDY    54  27  35 CALM      30.22S
KANAB          CLEAR     46  32  57 NW15      30.32R

$$

REGIONAL REPORTS     COLORADO/ARIZONA

CITY           SKY/WX    TMP DP  RH WIND       PRES   REMARKS
CRAIG, CO      CLOUDY    13   9  84 CALM      30.33F
GRAND JUNCTION CLOUDY    33  29  85 E3        30.33S
RIFLE          CLOUDY    30  21  69 CALM      30.34S
MONTROSE       CLOUDY    32  25  75 S9        30.37S WCI  24
CORTEZ         CLOUDY    28  23  81 NE7       30.36S WCI  21
PAGE, AZ       PTCLDY    44  30  57 CALM      30.29S
GRAND CANYON   CLEAR     31  23  72 NE3       30.36R
KINGMAN        CLEAR     43  25  49 CALM      30.20S
FLAGSTAFF      PTCLDY    30  20  66 CALM      30.37S

$$

REGIONAL REPORTS    NEVADA/IDAHO/WYOMING

CITY           SKY/WX    TMP DP  RH WIND       PRES   REMARKS
LAS VEGAS, NV  PTCLDY    59  25  27 CALM      30.13R
ELY            MOCLDY    30  20  66 S12       30.30S WCI  20
ELKO           CLOUDY    22  19  89 CALM      30.30S
POCATELLO, ID  CLOUDY    28  23  81 NE7       30.25F WCI  21
BURLEY         CLEAR     29  28  96 CALM      30.20F
EVANSTON, WY   CLOUDY    39  15  37 SW3       30.28F
ROCK SPRINGS   CLOUDY    36  19  50 SW9       30.26F WCI  29
KEMMERER       CLOUDY    28  16  59 N5        30.28S WCI  23

$$



USA.gov is the U.S. government's official web portal to all federal, state and local government web resources and services.